Overview Statistics Trail Chart Weather Telemetry Raw packets
 

This is the latest recevied weather packets stored in our database for station/object AD0YN. If no packets are shown the sender has not sent any weather packets the latest 10 day(s).

<< 1 2 3 4 5 6 7 >>
Time Temp. Humidity Pressure Rain* Wind** Luminosity Snow
1788554298 36.11° C 45% 1012.6 hPa 0 mm - 638 W/m² -
1788553994 36.11° C 44% 1012.6 hPa 0 mm - 647 W/m² -
1788553689 36.11° C 43% 1012.7 hPa 0 mm - 662 W/m² -
1788553386 36.67° C 44% 1012.8 hPa 0 mm - 680 W/m² -
1788553081 36.11° C 44% 1012.6 hPa 0 mm - 687 W/m² -
1788552781 35.56° C 46% 1013 hPa 0 mm - 692 W/m² -
1788552476 36.11° C 44% 1013.1 hPa 0 mm - 713 W/m² -
1788552170 36.11° C 44% 1013.1 hPa 0 mm - 723 W/m² -
1788551869 35.56° C 44% 1013.2 hPa 0 mm - 733 W/m² -
1788551568 36.11° C 44% 1013.2 hPa 0 mm - 746 W/m² -
1788551263 36.11° C 44% 1013.2 hPa 0 mm - 754 W/m² -
1788550962 36.11° C 45% 1013.3 hPa 0 mm - 757 W/m² -
1788550658 36.11° C 44% 1013.3 hPa 0 mm - 768 W/m² -
1788550353 36.11° C 44% 1013.5 hPa 0 mm - 777 W/m² -
1788550048 36.11° C 46% 1013.4 hPa 0 mm - 785 W/m² -
1788549743 36.11° C 44% 1013.5 hPa 0 mm - 790 W/m² -
1788549440 36.11° C 45% 1013.4 hPa 0 mm - 794 W/m² -
1788549136 36.11° C 45% 1013.6 hPa 0 mm - 797 W/m² -
1788548832 35.56° C 46% 1013.6 hPa 0 mm - 810 W/m² -
1788548528 35.56° C 45% 1013.7 hPa 0 mm - 809 W/m² -
1788548224 35.56° C 46% 1013.7 hPa 0 mm - 815 W/m² -
1788547919 35.56° C 47% 1013.7 hPa 0 mm - 815 W/m² -
1788547617 35° C 47% 1013.7 hPa 0 mm - 815 W/m² -
1788547313 35° C 47% 1013.8 hPa 0 mm - 816 W/m² -
1788547009 35° C 46% 1013.8 hPa 0 mm - 816 W/m² -

* Rain latest hour (hover to see other rain measurements)
** Current wind speed in m/s (hover to see current wind gust speed)